Hourly Data Report for May 24, 2022

TORONTO CITY
ONTARIO
Current Station Operator: ECCC - MSC

43°40'00.000" N
79°24'00.000" W
112.50 m
6158355
71508
XTO

Download Data

Hourly Data (May 2022)
Hourly Data Report for May 24, 2022
TIME
LST
Temp Definition
°C
Dew Point Definition
°C
Rel Hum Definition
%
Precip. Amount Definition
mm

Wind Dir Definition
10's deg

Wind Spd Definition
km/h
Visibility Definition
km
Stn Press Definition
kPa
Hmdx Definition


Wind Chill Definition


Weather Definition


00:00 10.5 5.5 71 0.0       101.24     LegendNANA
01:00 9.6 5.1 74 0.0       101.26     LegendNANA
02:00 9.1 5.1 76 0.0       101.19     LegendNANA
03:00 8.9 4.8 76 0.0       101.17     LegendNANA
04:00 9.6 3.9 68 0.0       101.17     LegendNANA
05:00 9.5 3.9 68 0.0       101.22     LegendNANA
06:00 10.1 4.3 67 0.0       101.28     LegendNANA
07:00 11.9 6.1 68 0.0       101.29     LegendNANA
08:00 14.6 5.7 55 0.0       101.27     LegendNANA
09:00 14.3 4.0 50 0.0       101.29     LegendNANA
10:00 14.7 5.0 52 0.0       101.27     LegendNANA
11:00 16.4 4.1 44 0.0       101.23     LegendNANA
12:00 17.1 4.5 43 0.0       101.20     LegendNANA
13:00 18.2 7.0 48 0.0       101.17     LegendNANA
14:00 17.3 5.7 47 0.0       101.15     LegendNANA
15:00 16.3 4.4 45 0.0       101.11     LegendNANA
16:00 17.1 3.2 39 0.0       101.08     LegendNANA
17:00 17.1 3.5 40 0.0       101.08     LegendNANA
18:00 17.4 2.6 37 0.0       101.08     LegendNANA
19:00 16.6 2.5 39 0.0       101.08     LegendNANA
20:00 15.5 2.6 42 0.0       101.08     LegendNANA
21:00 14.6 2.2 43 0.0       101.15     LegendNANA
22:00 13.9 3.1 48 0.0       101.19     LegendNANA
23:00 14.1 3.2 48 0.0       101.22     LegendNANA

Notes on Data Quality.

Legend

  • E = Estimated
  • M = Missing
  • NA = Not Available*
  • [empty] = Indicates an unobserved value
Date modified: